Shreveport, LA

8:52 PM CST on February 07, 2016 (GMT -0600)
Shreveport Regional

Weather History for KSHV - June, 2013

Change the Weather History Date:

Saturday, June 8, 2013

  Actual Average Record
Temperature  
Mean Temperature 75 °F 78 °F  
Max Temperature 86 °F 89 °F 99 °F (1932)
Min Temperature 63 °F 68 °F 52 °F (1977)
Degree Days  
Heating Degree Days 0 0  
Month to date heating degree days 0 0  
Since 1 June heating degree days 0 0  
Since 1 July heating degree days 2081 2226  
Cooling Degree Days 10 14  
Month to date cooling degree days 98 103  
Year to date cooling degree days 485 501  
Since 1 June cooling degree days 98 103  
Growing Degree Days 24 (Base 50)    
Moisture  
Dew Point 64 °F    
Average Humidity 74    
Maximum Humidity 100    
Minimum Humidity 48    
Precipitation  
Precipitation 0.00 in 0.17 in 3.01 in (1946)
Month to date precipitation 4.14 1.34  
Year to date precipitation 20.99 23.55  
Snow  
Snow 0.00 in - - ()
Month to date snowfall 0.0  
Since 1 June snowfall 0.0  
Since 1 July snowfall 0.1  
Snow Depth 0.00 in    
Sea Level Pressure  
Sea Level Pressure 29.90 in    
Wind  
Wind Speed 4 mph (SSE)    
Max Wind Speed 13 mph    
Max Gust Speed 26 mph    
Visibility 10 miles    
Events      
T = Trace of Precipitation, MM = Missing Value Source: NWS Daily Summary

Daily Weather History Graph

Daily Weather History Graph

Search for Another Location

Airport or City:

Trip Planner

Search our weather history database for the weather conditions in past years. The results will help you decide how hot, cold, wet, or windy it might be!

Date:

Astronomy

Jun. 08, 2013 Rise Set
Actual Time 6:07 AM CDT 8:21 PM CDT
Civil Twilight 5:39 AM CDT 8:49 PM CDT
Nautical Twilight 5:04 AM CDT 9:24 PM CDT
Astronomical Twilight 4:27 AM CDT 10:01 PM CDT
Moon 6:12 AM CDT 8:27 PM CDT
Length of Visible Light 15h 10m
Length of Day
14h 13m
New Moon, 0% of the Moon is Illuminated
Jun 8
New Moon
Jun 16
First Quarter
Jun 23
Full
Jun 29
Last Quarter
Jul 8
New

Hourly Weather History & Observations

Time (CDT) Temp. Heat Index Dew Point Humidity Pressure Visibility Wind Dir Wind Speed Gust Speed Precip Events Conditions
12:56 AM 66.9 °F - 63.0 °F 87% 29.92 in 10.0 mi Calm Calm - N/A   Mostly Cloudy
1:56 AM 66.0 °F - 63.0 °F 90% 29.91 in 10.0 mi Calm Calm - N/A   Mostly Cloudy
2:56 AM 64.9 °F - 63.0 °F 93% 29.90 in 10.0 mi Calm Calm - N/A   Mostly Cloudy
3:56 AM 64.0 °F - 62.1 °F 93% 29.90 in 10.0 mi Calm Calm - N/A   Mostly Cloudy
4:56 AM 64.9 °F - 63.0 °F 93% 29.91 in 10.0 mi Calm Calm - N/A   Scattered Clouds
5:56 AM 63.0 °F - 62.1 °F 97% 29.91 in 9.0 mi Calm Calm - N/A   Scattered Clouds
6:56 AM 64.9 °F - 63.0 °F 93% 29.92 in 7.0 mi Calm Calm - N/A   Scattered Clouds
7:16 AM 66.2 °F - 64.4 °F 94% 29.93 in 9.0 mi Calm Calm - N/A   Scattered Clouds
7:56 AM 71.1 °F - 66.9 °F 87% 29.94 in 10.0 mi Calm Calm - N/A   Scattered Clouds
8:56 AM 77.0 °F - 64.9 °F 66% 29.94 in 10.0 mi ESE 5.8 mph - N/A   Scattered Clouds
9:56 AM 80.1 °F 81.7 °F 64.0 °F 58% 29.94 in 10.0 mi ESE 6.9 mph - N/A   Scattered Clouds
10:56 AM 80.1 °F 81.5 °F 63.0 °F 56% 29.95 in 10.0 mi Calm Calm - N/A   Mostly Cloudy
11:56 AM 82.9 °F 84.4 °F 64.0 °F 53% 29.94 in 10.0 mi Calm Calm - N/A   Scattered Clouds
12:56 PM 84.0 °F 85.4 °F 64.0 °F 51% 29.92 in 10.0 mi SSE 8.1 mph - N/A   Scattered Clouds
1:56 PM 84.9 °F 86.1 °F 64.0 °F 49% 29.90 in 10.0 mi SSE 6.9 mph - N/A   Partly Cloudy
2:56 PM 84.0 °F 85.4 °F 64.0 °F 51% 29.88 in 10.0 mi ESE 8.1 mph - N/A   Scattered Clouds
3:56 PM 86.0 °F 88.2 °F 66.0 °F 51% 29.86 in 10.0 mi SSE 8.1 mph - N/A   Scattered Clouds
4:56 PM 86.0 °F 87.6 °F 64.9 °F 49% 29.86 in 10.0 mi Variable 6.9 mph - N/A   Scattered Clouds
5:56 PM 86.0 °F 88.2 °F 66.0 °F 51% 29.85 in 10.0 mi South 9.2 mph 19.6 mph N/A   Scattered Clouds
6:56 PM 84.0 °F 85.8 °F 64.9 °F 53% 29.85 in 10.0 mi South 5.8 mph - N/A   Scattered Clouds
7:56 PM 80.1 °F 81.9 °F 64.9 °F 60% 29.86 in 10.0 mi South 4.6 mph - N/A   Scattered Clouds
8:56 PM 77.0 °F - 66.0 °F 69% 29.86 in 10.0 mi Calm Calm - N/A   Partly Cloudy
9:56 PM 72.0 °F - 66.0 °F 81% 29.86 in 10.0 mi SE 5.8 mph - N/A   Partly Cloudy
10:56 PM 73.0 °F - 68.0 °F 84% 29.87 in 10.0 mi South 5.8 mph - N/A   Partly Cloudy
11:56 PM 72.0 °F - 68.0 °F 87% 29.89 in 9.0 mi SE 3.5 mph - N/A   Partly Cloudy